Back to catalog

STARLINK-35371

AliveCommunicationsVLEO
NORAD 66484·PAYLOAD·🇺🇸 United States

Launched Nov 15, 2025 from Cape Canaveral Space Force Station

Loading…

Next Passes (next 24 hours)

TLE

FreshSource: CelesTrak SupGP

Epoch: Sep 14, 2026, 21:17 UTC

1 66484C 25262AE  26257.88729167 -.00017100  00000+0 -61937-3 0  2571
2 66484  43.0036 308.0965 0001646 271.2521 203.3379 15.27586520    13

Track STARLINK-35371 in real time with AllMySat

Download on the App Store